Gainesville, GA

3:31 AM EDT on October 15, 2019 (GMT -0400)
Gilmer Memorial

Weather History for KGVL - August, 2019

Change the Weather History Date:

Saturday, August 31, 2019

  Actual Average Record
Temperature  
Mean Temperature 77 °F 76 °F  
Max Temperature 88 °F 85 °F 99 °F (1953)
Min Temperature 65 °F 68 °F 50 °F (1936)
Cooling Degree Days 12 11  
Month to date cooling degree days 436 404  
Year to date cooling degree days 1509 1326  
Since 1 June cooling degree days 1173 1151  
Growing Degree Days 26 (Base 50)    
Moisture  
Dew Point 63 °F    
Average Humidity 64    
Maximum Humidity 87    
Minimum Humidity 40    
Precipitation  
Precipitation 0.00 in 0.12 in 1.71 in (2017)
Month to date precipitation 2.47 4.43  
Year to date precipitation 37.31 36.25  
Sea Level Pressure  
Sea Level Pressure 30.15 in    
Wind  
Wind Speed 6 mph (ENE)    
Max Wind Speed 14 mph    
Max Gust Speed 19 mph    
Visibility 10 miles    
Events      
T = Trace of Precipitation, MM = Missing Value Source: NWS Daily Summary

Daily Weather History Graph

Daily Weather History Graph

Search for Another Location

Airport or City:

Astronomy

Aug. 31, 2019 Rise Set
Actual Time 7:07 AM EDT 8:02 PM EDT
Civil Twilight 6:42 AM EDT 8:28 PM EDT
Nautical Twilight 6:11 AM EDT 8:58 PM EDT
Astronomical Twilight 5:40 AM EDT 9:30 PM EDT
Moon 8:21 AM EDT (8/31) 9:18 PM EDT (8/31)
Length of Visible Light 13h 46m
Length of Day
12h 55m
New Moon, 2% of the Moon is Illuminated
Aug 31
New Moon
Sep 5
First Quarter
Sep 14
Full
Sep 21
Last Quarter
Sep 28
New

Hourly Weather History & Observations

Time (EDT) Temp. Heat Index Dew Point Humidity Pressure Visibility Wind Dir Wind Speed Gust Speed Precip Events Conditions
12:53 AM 69.1 °F - 63.0 °F 81% 30.16 in 10.0 mi NE 3.5 mph - N/A   Clear
1:53 AM 69.1 °F - 63.0 °F 81% 30.16 in 10.0 mi NE 3.5 mph - N/A   Clear
2:53 AM 69.1 °F - 62.1 °F 78% 30.13 in 10.0 mi ENE 4.6 mph - N/A   Clear
3:53 AM 68.0 °F - 62.1 °F 81% 30.12 in 10.0 mi East 5.8 mph - N/A   Clear
4:53 AM 68.0 °F - 62.1 °F 81% 30.12 in 10.0 mi NE 4.6 mph - N/A   Clear
5:53 AM 66.9 °F - 61.0 °F 81% 30.14 in 10.0 mi ENE 4.6 mph - N/A   Clear
6:53 AM 68.0 °F - 61.0 °F 78% 30.15 in 10.0 mi ENE 6.9 mph - N/A   Clear
7:53 AM 66.0 °F - 62.1 °F 87% 30.18 in 10.0 mi NNE 4.6 mph - N/A   Clear
8:17 AM 66.9 °F - 62.1 °F 84% 30.22 in 10.0 mi NE 6.9 mph - N/A   Mostly Cloudy
8:24 AM 68.0 °F - 62.1 °F 81% 30.22 in 10.0 mi NNE 6.9 mph - N/A   Scattered Clouds
8:53 AM 71.1 °F - 63.0 °F 75% 30.17 in 10.0 mi NE 5.8 mph - N/A   Clear
9:53 AM 75.9 °F - 66.0 °F 71% 30.18 in 10.0 mi Variable 6.9 mph - N/A   Clear
10:53 AM 79.0 °F - 69.1 °F 72% 30.18 in 10.0 mi ENE 6.9 mph - N/A   Clear
11:53 AM 82.0 °F 84.9 °F 68.0 °F 62% 30.18 in 10.0 mi East 6.9 mph - N/A   Partly Cloudy
12:53 PM 84.0 °F 84.9 °F 63.0 °F 49% 30.16 in 10.0 mi East 5.8 mph - N/A   Mostly Cloudy
1:53 PM 86.0 °F 86.3 °F 62.1 °F 44% 30.15 in 10.0 mi ENE 10.4 mph - N/A   Clear
2:53 PM 84.9 °F 85.0 °F 61.0 °F 44% 30.14 in 10.0 mi ESE 8.1 mph - N/A   Clear
3:53 PM 87.1 °F 87.0 °F 61.0 °F 41% 30.11 in 10.0 mi East 6.9 mph - N/A   Partly Cloudy
4:53 PM 87.1 °F 87.8 °F 63.0 °F 44% 30.10 in 10.0 mi NE 5.8 mph - N/A   Clear
5:53 PM 86.0 °F 86.8 °F 63.0 °F 46% 30.11 in 10.0 mi East 10.4 mph - N/A   Scattered Clouds
6:53 PM 84.0 °F 84.0 °F 60.1 °F 44% 30.11 in 10.0 mi East 10.4 mph - N/A   Clear
7:53 PM 80.1 °F 81.2 °F 62.1 °F 54% 30.12 in 10.0 mi East 4.6 mph - N/A   Clear
8:53 PM 77.0 °F - 62.1 °F 60% 30.12 in 10.0 mi East 4.6 mph - N/A   Clear
9:53 PM 75.9 °F - 63.0 °F 64% 30.13 in 10.0 mi East 4.6 mph - N/A   Clear
10:53 PM 75.0 °F - 63.0 °F 66% 30.15 in 10.0 mi ENE 3.5 mph - N/A   Clear
11:53 PM 73.9 °F - 63.0 °F 68% 30.14 in 10.0 mi ENE 3.5 mph - N/A   Clear